QFA7546 YPXM-YPCC

Flight info

Callsign QFA7546
Flight time 1h 23m
Altitude 34000
Route XMX G200 CC
Aircraft B738/M-SDE2E3FGHIRWXY/LB1

Departure

Time 2026-04-18 03:13
Airport Christmas Island International Airport (YPXM)

Arrival

Time 2026-04-18 04:36
Airport Cocos (Keeling) Islands Airport (YPCC)
Time Latitude Longitude Altitude Speed Heading
2026-04-18 02:52 -10.45073 105.68935 853 ft 0 kts 221°
2026-04-18 03:07 -10.45088 105.68934 847 ft 5 kts 159°
2026-04-18 03:07 -10.45099 105.68970 852 ft 6 kts 95°
2026-04-18 03:07 -10.45100 105.69010 852 ft 6 kts 86°
2026-04-18 03:07 -10.45092 105.69078 847 ft 11 kts 70°
2026-04-18 03:08 -10.45025 105.69101 852 ft 11 kts 355°
2026-04-18 03:08 -10.44951 105.69095 849 ft 11 kts 355°
2026-04-18 03:08 -10.44878 105.69089 854 ft 11 kts 355°
2026-04-18 03:08 -10.44805 105.69083 868 ft 10 kts 355°
2026-04-18 03:09 -10.44735 105.69077 872 ft 10 kts 356°
2026-04-18 03:09 -10.44667 105.69072 876 ft 10 kts 356°
2026-04-18 03:09 -10.44589 105.69067 881 ft 13 kts 357°
2026-04-18 03:09 -10.44547 105.69064 883 ft 0 kts 354°
2026-04-18 03:10 -10.44546 105.69064 883 ft 2 kts 354°
2026-04-18 03:10 -10.44517 105.69060 885 ft 7 kts 353°
2026-04-18 03:10 -10.44451 105.69054 887 ft 12 kts 355°
2026-04-18 03:10 -10.44348 105.69045 890 ft 17 kts 355°
2026-04-18 03:11 -10.44218 105.69034 895 ft 18 kts 355°
2026-04-18 03:11 -10.44138 105.69022 898 ft 11 kts 336°
2026-04-18 03:11 -10.44094 105.69007 900 ft 2 kts 14°
2026-04-18 03:11 -10.44093 105.69019 901 ft 3 kts 123°
2026-04-18 03:12 -10.44147 105.69033 898 ft 16 kts 173°
2026-04-18 03:12 -10.44508 105.69060 885 ft 89 kts 175°
2026-04-18 03:12 -10.45357 105.69129 830 ft 154 kts 173°
2026-04-18 03:12 -10.46493 105.69234 1317 ft 169 kts 168°
2026-04-18 03:13 -10.47681 105.69203 2118 ft 182 kts 188°
2026-04-18 03:13 -10.48850 105.68498 2638 ft 216 kts 221°
2026-04-18 03:13 -10.49532 105.67022 2857 ft 252 kts 262°
2026-04-18 03:13 -10.49181 105.65228 3223 ft 268 kts 295°
2026-04-18 03:14 -10.48409 105.63419 3509 ft 289 kts 290°
2026-04-18 03:14 -10.47860 105.61440 4299 ft 292 kts 283°
2026-04-18 03:14 -10.47531 105.59406 5111 ft 295 kts 264°
2026-04-18 03:14 -10.47889 105.57393 5914 ft 294 kts 255°
2026-04-18 03:15 -10.48319 105.55348 6603 ft 299 kts 257°
2026-04-18 03:15 -10.48719 105.53257 7398 ft 300 kts 257°
2026-04-18 03:15 -10.49098 105.51197 8115 ft 302 kts 257°
2026-04-18 03:15 -10.49477 105.49083 8801 ft 307 kts 258°
2026-04-18 03:16 -10.49856 105.46943 9496 ft 311 kts 258°
2026-04-18 03:16 -10.50235 105.44785 10258 ft 310 kts 258°
2026-04-18 03:16 -10.50621 105.42580 10638 ft 326 kts 259°
2026-04-18 03:16 -10.51029 105.40238 10784 ft 348 kts 259°
2026-04-18 03:17 -10.51460 105.37761 11097 ft 362 kts 258°
2026-04-18 03:17 -10.51904 105.35200 11508 ft 372 kts 259°
2026-04-18 03:17 -10.52352 105.32605 12132 ft 375 kts 259°
2026-04-18 03:17 -10.52799 105.30016 12966 ft 370 kts 259°
2026-04-18 03:18 -10.53249 105.27416 13454 ft 378 kts 259°
2026-04-18 03:18 -10.53709 105.24753 13846 ft 388 kts 259°
2026-04-18 03:18 -10.54175 105.22054 14432 ft 388 kts 260°
2026-04-18 03:18 -10.54640 105.19363 15107 ft 385 kts 259°
2026-04-18 03:19 -10.55104 105.16671 15595 ft 390 kts 260°
2026-04-18 03:19 -10.55578 105.13930 15965 ft 398 kts 259°
2026-04-18 03:19 -10.56058 105.11144 16456 ft 401 kts 260°
2026-04-18 03:19 -10.56538 105.08358 17091 ft 399 kts 260°
2026-04-18 03:20 -10.57021 105.05560 17548 ft 404 kts 260°
2026-04-18 03:20 -10.57508 105.02728 17961 ft 409 kts 259°
2026-04-18 03:20 -10.58000 104.99868 18390 ft 412 kts 260°
2026-04-18 03:20 -10.58496 104.96987 18823 ft 414 kts 259°
2026-04-18 03:21 -10.58988 104.94120 19488 ft 407 kts 259°
2026-04-18 03:21 -10.59473 104.91296 20108 ft 405 kts 260°
2026-04-18 03:21 -10.59954 104.88492 20719 ft 401 kts 259°
2026-04-18 03:21 -10.60438 104.85704 21259 ft 402 kts 259°
2026-04-18 03:22 -10.60920 104.82890 21638 ft 406 kts 259°
2026-04-18 03:22 -10.61422 104.80033 21887 ft 413 kts 258°
2026-04-18 03:22 -10.61990 104.77183 22501 ft 409 kts 258°
2026-04-18 03:22 -10.62583 104.74352 22985 ft 411 kts 257°
2026-04-18 03:23 -10.63189 104.71505 23366 ft 414 kts 257°
2026-04-18 03:23 -10.63799 104.68628 23672 ft 419 kts 257°
2026-04-18 03:23 -10.64405 104.65746 24176 ft 415 kts 257°
2026-04-18 03:23 -10.65004 104.62871 24531 ft 417 kts 257°
2026-04-18 03:24 -10.65608 104.59956 24675 ft 425 kts 258°
2026-04-18 03:24 -10.66218 104.57002 24963 ft 428 kts 258°
2026-04-18 03:24 -10.66829 104.54030 25220 ft 432 kts 258°
2026-04-18 03:24 -10.67443 104.51038 25525 ft 434 kts 258°
2026-04-18 03:25 -10.68060 104.48031 25900 ft 434 kts 258°
2026-04-18 03:25 -10.68674 104.45037 26325 ft 433 kts 258°
2026-04-18 03:25 -10.69290 104.42036 26632 ft 435 kts 258°
2026-04-18 03:25 -10.69908 104.39019 26931 ft 437 kts 258°
2026-04-18 03:26 -10.70530 104.35987 27227 ft 439 kts 258°
2026-04-18 03:26 -10.71154 104.32938 27475 ft 442 kts 258°
2026-04-18 03:26 -10.71783 104.29864 27688 ft 446 kts 258°
2026-04-18 03:26 -10.72414 104.26779 28050 ft 445 kts 258°
2026-04-18 03:27 -10.73046 104.23692 28320 ft 448 kts 258°
2026-04-18 03:27 -10.73682 104.20581 28499 ft 452 kts 258°
2026-04-18 03:27 -10.74320 104.17455 28859 ft 451 kts 258°
2026-04-18 03:27 -10.74957 104.14337 29212 ft 451 kts 258°
2026-04-18 03:28 -10.75587 104.11249 29403 ft 454 kts 259°
2026-04-18 03:28 -10.76231 104.08090 29609 ft 457 kts 258°
2026-04-18 03:28 -10.76876 104.04927 29921 ft 457 kts 258°
2026-04-18 03:28 -10.77523 104.01751 30081 ft 461 kts 259°
2026-04-18 03:29 -10.78173 103.98559 30329 ft 460 kts 258°
2026-04-18 03:29 -10.78820 103.95380 30693 ft 458 kts 258°
2026-04-18 03:29 -10.79466 103.92206 30877 ft 460 kts 259°
2026-04-18 03:29 -10.80114 103.89014 31015 ft 463 kts 259°
2026-04-18 03:30 -10.80767 103.85804 31253 ft 463 kts 259°
2026-04-18 03:30 -10.81418 103.82600 31493 ft 463 kts 258°
2026-04-18 03:30 -10.82068 103.79395 31719 ft 463 kts 259°
2026-04-18 03:30 -10.82720 103.76182 31919 ft 464 kts 259°
2026-04-18 03:31 -10.83371 103.72967 32122 ft 465 kts 259°
2026-04-18 03:31 -10.84024 103.69748 32337 ft 465 kts 259°
2026-04-18 03:31 -10.84675 103.66530 32576 ft 464 kts 258°
2026-04-18 03:31 -10.85326 103.63315 32838 ft 463 kts 259°
2026-04-18 03:32 -10.85973 103.60117 33203 ft 460 kts 258°
2026-04-18 03:32 -10.86615 103.56939 33488 ft 459 kts 259°
2026-04-18 03:32 -10.87257 103.53764 33765 ft 457 kts 258°
2026-04-18 03:32 -10.87893 103.50615 33946 ft 454 kts 258°
2026-04-18 03:33 -10.89158 103.44347 33947 ft 452 kts 258°
2026-04-18 03:33 -10.90419 103.38088 33943 ft 451 kts 259°
2026-04-18 03:34 -10.91678 103.31832 33956 ft 451 kts 259°
2026-04-18 03:34 -10.92936 103.25575 33944 ft 451 kts 259°
2026-04-18 03:35 -10.94193 103.19316 33948 ft 452 kts 258°
2026-04-18 03:35 -10.95450 103.13053 33952 ft 452 kts 259°
2026-04-18 03:36 -10.96706 103.06782 33935 ft 452 kts 258°
2026-04-18 03:36 -10.97952 103.00554 33948 ft 452 kts 259°
2026-04-18 03:37 -10.99207 102.94282 33947 ft 452 kts 259°
2026-04-18 03:37 -11.00460 102.88014 33940 ft 452 kts 258°
2026-04-18 03:38 -11.01712 102.81739 33948 ft 452 kts 259°
2026-04-18 03:38 -11.02961 102.75468 33941 ft 452 kts 258°
2026-04-18 03:39 -11.04207 102.69203 33945 ft 451 kts 259°
2026-04-18 03:39 -11.05450 102.62942 33949 ft 451 kts 259°
2026-04-18 03:40 -11.06691 102.56687 33933 ft 451 kts 259°
2026-04-18 03:40 -11.07929 102.50440 33941 ft 450 kts 259°
2026-04-18 03:41 -11.09166 102.44192 33947 ft 450 kts 259°
2026-04-18 03:41 -11.10192 102.39007 33945 ft 450 kts 259°
2026-04-18 03:42 -11.11426 102.32764 33952 ft 449 kts 259°
2026-04-18 03:42 -11.12657 102.26528 33940 ft 450 kts 259°
2026-04-18 03:43 -11.13886 102.20289 33946 ft 450 kts 259°
2026-04-18 03:43 -11.15115 102.14045 33948 ft 450 kts 259°
2026-04-18 03:44 -11.16343 102.07806 33940 ft 450 kts 259°
2026-04-18 03:44 -11.17569 102.01564 33959 ft 449 kts 259°
2026-04-18 03:45 -11.18790 101.95332 33953 ft 448 kts 259°
2026-04-18 03:45 -11.20009 101.89111 33942 ft 448 kts 259°
2026-04-18 03:46 -11.21228 101.82894 33952 ft 447 kts 259°
2026-04-18 03:46 -11.22443 101.76691 33948 ft 447 kts 259°
2026-04-18 03:47 -11.23653 101.70488 33955 ft 446 kts 259°
2026-04-18 03:47 -11.24861 101.64290 33955 ft 446 kts 259°
2026-04-18 03:48 -11.26063 101.58127 33950 ft 447 kts 260°
2026-04-18 03:48 -11.27273 101.51913 33959 ft 447 kts 259°
2026-04-18 03:49 -11.28481 101.45704 33949 ft 447 kts 260°
2026-04-18 03:49 -11.29687 101.39488 33950 ft 447 kts 260°
2026-04-18 03:50 -11.30893 101.33270 33955 ft 447 kts 259°
2026-04-18 03:50 -11.32098 101.27049 33945 ft 448 kts 259°
2026-04-18 03:51 -11.33301 101.20833 33954 ft 447 kts 260°
2026-04-18 03:51 -11.34666 101.13776 33955 ft 447 kts 259°
2026-04-18 03:52 -11.35864 101.07570 33954 ft 446 kts 259°
2026-04-18 03:52 -11.36858 101.02412 33956 ft 446 kts 259°
2026-04-18 03:53 -11.38053 100.96206 33945 ft 446 kts 259°
2026-04-18 03:53 -11.39441 100.88998 33945 ft 446 kts 260°
2026-04-18 03:54 -11.40439 100.83805 33959 ft 446 kts 259°
2026-04-18 03:54 -11.41621 100.77643 33956 ft 446 kts 259°
2026-04-18 03:55 -11.42811 100.71431 33958 ft 447 kts 260°
2026-04-18 03:55 -11.44002 100.65214 33943 ft 447 kts 259°
2026-04-18 03:56 -11.45189 100.58997 33953 ft 447 kts 259°
2026-04-18 03:56 -11.46378 100.52768 33952 ft 448 kts 260°
2026-04-18 03:57 -11.48227 100.43433 33957 ft 448 kts 259°
2026-04-18 03:58 -11.49519 100.37212 33966 ft 448 kts 258°
2026-04-18 03:58 -11.50802 100.31025 33953 ft 443 kts 258°
2026-04-18 03:59 -11.52061 100.24921 33946 ft 438 kts 258°
2026-04-18 03:59 -11.53308 100.18842 33953 ft 439 kts 258°
2026-04-18 04:00 -11.54561 100.12725 33964 ft 443 kts 258°
2026-04-18 04:00 -11.55818 100.06574 33955 ft 443 kts 258°
2026-04-18 04:01 -11.57076 100.00420 33961 ft 443 kts 258°
2026-04-18 04:01 -11.58332 99.94267 33950 ft 443 kts 258°
2026-04-18 04:02 -11.59593 99.88122 33948 ft 443 kts 258°
2026-04-18 04:02 -11.60847 99.81976 33963 ft 442 kts 258°
2026-04-18 04:03 -11.62084 99.75875 33948 ft 443 kts 258°
2026-04-18 04:03 -11.63333 99.69730 33960 ft 442 kts 258°
2026-04-18 04:04 -11.64578 99.63586 33958 ft 442 kts 258°
2026-04-18 04:04 -11.65821 99.57440 33956 ft 442 kts 258°
2026-04-18 04:05 -11.67066 99.51293 33955 ft 443 kts 258°
2026-04-18 04:05 -11.68312 99.45140 33947 ft 443 kts 258°
2026-04-18 04:06 -11.69557 99.38982 33953 ft 443 kts 258°
2026-04-18 04:06 -11.70799 99.32823 33958 ft 443 kts 258°
2026-04-18 04:07 -11.72040 99.26662 33951 ft 443 kts 258°
2026-04-18 04:07 -11.73282 99.20500 33959 ft 443 kts 258°
2026-04-18 04:08 -11.74520 99.14341 33951 ft 443 kts 258°
2026-04-18 04:08 -11.75758 99.08176 33953 ft 443 kts 259°
2026-04-18 04:09 -11.76993 99.02019 33963 ft 443 kts 259°
2026-04-18 04:09 -11.78225 98.95867 33953 ft 442 kts 258°
2026-04-18 04:10 -11.79446 98.89761 33967 ft 442 kts 259°
2026-04-18 04:10 -11.80673 98.83617 33956 ft 441 kts 259°
2026-04-18 04:11 -11.81897 98.77483 33955 ft 441 kts 258°
2026-04-18 04:11 -11.83123 98.71348 33959 ft 441 kts 259°
2026-04-18 04:12 -11.84355 98.65177 33306 ft 448 kts 259°
2026-04-18 04:12 -11.84974 98.62072 32704 ft 446 kts 259°
2026-04-18 04:12 -11.85593 98.58966 32054 ft 447 kts 259°
2026-04-18 04:12 -11.86210 98.55865 31571 ft 444 kts 259°
2026-04-18 04:13 -11.86818 98.52793 31108 ft 441 kts 259°
2026-04-18 04:13 -11.87423 98.49735 30636 ft 438 kts 260°
2026-04-18 04:13 -11.88027 98.46692 30155 ft 436 kts 259°
2026-04-18 04:13 -11.88627 98.43664 29623 ft 434 kts 260°
2026-04-18 04:14 -11.89225 98.40657 29118 ft 430 kts 261°
2026-04-18 04:14 -11.89818 98.37674 28625 ft 427 kts 261°
2026-04-18 04:14 -11.90404 98.34718 28150 ft 424 kts 260°
2026-04-18 04:14 -11.90984 98.31785 27686 ft 420 kts 260°
2026-04-18 04:15 -11.91557 98.28869 27225 ft 417 kts 260°
2026-04-18 04:15 -11.92126 98.25975 26764 ft 414 kts 260°
2026-04-18 04:15 -11.92695 98.23100 26318 ft 412 kts 261°
2026-04-18 04:15 -11.93259 98.20243 25833 ft 410 kts 261°
2026-04-18 04:16 -11.93822 98.17394 25378 ft 409 kts 261°
2026-04-18 04:16 -11.94385 98.14551 24907 ft 407 kts 260°
2026-04-18 04:16 -11.94943 98.11721 24443 ft 406 kts 260°
2026-04-18 04:16 -11.95498 98.08892 23986 ft 406 kts 260°
2026-04-18 04:17 -11.96054 98.06071 23514 ft 405 kts 259°
2026-04-18 04:17 -11.96609 98.03252 22974 ft 404 kts 261°
2026-04-18 04:17 -11.97160 98.00448 22507 ft 402 kts 261°
2026-04-18 04:17 -11.97711 97.97654 22049 ft 400 kts 260°
2026-04-18 04:18 -11.98257 97.94881 21601 ft 397 kts 260°
2026-04-18 04:18 -11.98799 97.92122 21141 ft 395 kts 261°
2026-04-18 04:18 -11.99335 97.89378 20697 ft 394 kts 260°
2026-04-18 04:18 -11.99863 97.86682 20244 ft 392 kts 261°
2026-04-18 04:19 -12.00396 97.83954 19791 ft 391 kts 260°
2026-04-18 04:19 -12.00929 97.81237 19341 ft 390 kts 260°
2026-04-18 04:19 -12.01459 97.78526 18891 ft 389 kts 261°
2026-04-18 04:19 -12.01990 97.75818 18449 ft 388 kts 260°
2026-04-18 04:20 -12.02521 97.73111 17961 ft 388 kts 260°
2026-04-18 04:20 -12.03048 97.70415 17491 ft 386 kts 260°
2026-04-18 04:20 -12.03572 97.67732 17035 ft 384 kts 261°
2026-04-18 04:20 -12.04093 97.65063 16591 ft 382 kts 259°
2026-04-18 04:21 -12.04611 97.62409 16156 ft 380 kts 260°
2026-04-18 04:21 -12.05127 97.59766 15706 ft 379 kts 259°
2026-04-18 04:21 -12.05639 97.57136 15262 ft 377 kts 260°
2026-04-18 04:21 -12.06153 97.54506 14838 ft 376 kts 260°
2026-04-18 04:22 -12.06661 97.51892 14396 ft 375 kts 259°
2026-04-18 04:22 -12.07169 97.49283 13959 ft 374 kts 259°
2026-04-18 04:22 -12.07675 97.46680 13482 ft 374 kts 259°
2026-04-18 04:22 -12.08181 97.44079 13030 ft 372 kts 259°
2026-04-18 04:23 -12.08683 97.41498 12580 ft 369 kts 259°
2026-04-18 04:23 -12.09178 97.38955 12141 ft 361 kts 259°
2026-04-18 04:23 -12.09662 97.36466 11731 ft 355 kts 259°
2026-04-18 04:23 -12.10136 97.34011 11338 ft 349 kts 259°
2026-04-18 04:24 -12.10607 97.31581 10932 ft 349 kts 259°
2026-04-18 04:24 -12.11075 97.29166 10672 ft 343 kts 259°
2026-04-18 04:24 -12.11484 97.26791 10475 ft 335 kts 266°
2026-04-18 04:24 -12.11322 97.24460 10326 ft 324 kts 285°
2026-04-18 04:25 -12.10709 97.22282 10196 ft 315 kts 289°
2026-04-18 04:25 -12.10046 97.20176 10046 ft 308 kts 290°
2026-04-18 04:25 -12.09389 97.18132 9749 ft 307 kts 290°
2026-04-18 04:25 -12.08726 97.16072 9457 ft 304 kts 289°
2026-04-18 04:26 -12.08076 97.14022 9142 ft 303 kts 289°
2026-04-18 04:26 -12.07436 97.11985 8850 ft 301 kts 289°
2026-04-18 04:26 -12.06801 97.09954 8538 ft 300 kts 289°
2026-04-18 04:26 -12.06168 97.07926 8234 ft 299 kts 289°
2026-04-18 04:27 -12.05539 97.05905 7938 ft 299 kts 289°
2026-04-18 04:27 -12.04910 97.03884 7641 ft 298 kts 289°
2026-04-18 04:27 -12.04286 97.01875 7345 ft 297 kts 289°
2026-04-18 04:27 -12.03661 96.99864 7029 ft 297 kts 289°
2026-04-18 04:28 -12.03037 96.97855 6725 ft 297 kts 289°
2026-04-18 04:28 -12.02412 96.95845 6414 ft 297 kts 289°
2026-04-18 04:28 -12.01789 96.93840 6119 ft 295 kts 289°
2026-04-18 04:28 -12.01175 96.91863 5812 ft 289 kts 289°
2026-04-18 04:29 -12.00575 96.89934 5525 ft 282 kts 289°
2026-04-18 04:29 -11.99988 96.88044 5348 ft 275 kts 289°
2026-04-18 04:29 -11.99417 96.86210 5263 ft 265 kts 289°
2026-04-18 04:29 -11.98875 96.84466 5181 ft 251 kts 289°
2026-04-18 04:30 -11.98361 96.82811 5076 ft 238 kts 289°
2026-04-18 04:30 -11.97881 96.81256 4940 ft 228 kts 287°
2026-04-18 04:30 -11.97821 96.79661 4679 ft 228 kts 251°
2026-04-18 04:30 -11.98670 96.78317 4330 ft 230 kts 221°
2026-04-18 04:31 -11.99929 96.77207 3729 ft 242 kts 215°
2026-04-18 04:31 -12.01233 96.76154 3486 ft 237 kts 214°
2026-04-18 04:31 -12.02517 96.75147 3321 ft 226 kts 207°
2026-04-18 04:31 -12.03931 96.74795 3187 ft 200 kts 165°
2026-04-18 04:32 -12.05221 96.75197 2975 ft 192 kts 154°
2026-04-18 04:32 -12.06430 96.75727 2717 ft 187 kts 150°
2026-04-18 04:32 -12.07579 96.76305 2479 ft 181 kts 145°
2026-04-18 04:32 -12.08653 96.76946 2244 ft 177 kts 143°
2026-04-18 04:33 -12.09687 96.77582 2031 ft 169 kts 143°
2026-04-18 04:33 -12.10671 96.78186 1797 ft 161 kts 143°
2026-04-18 04:33 -12.11618 96.78767 1598 ft 157 kts 144°
2026-04-18 04:33 -12.12560 96.79345 1373 ft 159 kts 144°
2026-04-18 04:34 -12.13500 96.79922 1169 ft 157 kts 144°
2026-04-18 04:34 -12.14435 96.80495 976 ft 155 kts 144°
2026-04-18 04:34 -12.15347 96.81063 747 ft 153 kts 146°
2026-04-18 04:34 -12.16264 96.81630 609 ft 161 kts 148°
2026-04-18 04:35 -12.17231 96.82223 331 ft 163 kts 144°
2026-04-18 04:35 -12.18188 96.82801 55 ft 158 kts 146°
2026-04-18 04:35 -12.19033 96.83316 14 ft 115 kts 154°
2026-04-18 04:35 -12.19539 96.83615 18 ft 53 kts 149°
2026-04-18 04:36 -12.19657 96.83687 18 ft 0 kts 149°
2026-04-18 04:36 -12.19666 96.83693 18 ft 6 kts 149°
2026-04-18 04:36 -12.19736 96.83737 16 ft 18 kts 148°
2026-04-18 04:36 -12.19869 96.83813 14 ft 24 kts 149°
2026-04-18 04:37 -12.20005 96.83898 17 ft 21 kts 148°
2026-04-18 04:37 -12.20073 96.83933 18 ft 6 kts 235°
2026-04-18 04:37 -12.20060 96.83917 17 ft 4 kts 343°
2026-04-18 04:37 -12.20020 96.83901 16 ft 9 kts 336°
2026-04-18 04:38 -12.19950 96.83860 16 ft 15 kts 327°
2026-04-18 04:38 -12.19847 96.83793 16 ft 20 kts 329°
2026-04-18 04:38 -12.19717 96.83718 19 ft 22 kts 331°
2026-04-18 04:38 -12.19580 96.83639 18 ft 24 kts 330°
2026-04-18 04:39 -12.19429 96.83547 20 ft 26 kts 329°
2026-04-18 04:39 -12.19269 96.83451 18 ft 29 kts 329°
2026-04-18 04:39 -12.19094 96.83346 16 ft 29 kts 329°
2026-04-18 04:39 -12.18928 96.83245 10 ft 27 kts 330°
2026-04-18 04:40 -12.18771 96.83151 11 ft 25 kts 328°
2026-04-18 04:40 -12.18625 96.83063 10 ft 23 kts 330°
2026-04-18 04:40 -12.18567 96.82994 10 ft 11 kts 248°
2026-04-18 04:40 -12.18554 96.82937 13 ft 9 kts 326°
2026-04-18 04:41 -12.18542 96.82909 14 ft 4 kts 211°
2026-04-18 04:41 -12.18570 96.82904 13 ft 4 kts 191°
2026-04-18 04:41 -12.18580 96.82902 13 ft 0 kts 191°